AAL254 PHOG-KLAX

Flight info

Callsign AAL254
Flight time N/A
Altitude 33000
Route PUHEE1 TAAKA EBBER R577 ETNIC/N0448F350 R577 ELKEY RYDRR2
Aircraft A321/M-SDE3FGHIRWY/LB1

Departure

Time 2026-04-12 05:47
Airport Kahului International Airport (PHOG)

Arrival

Time N/A
Airport Los Angeles International Airport (KLAX)
Time Latitude Longitude Altitude Speed Heading
2026-04-12 05:04 20.89450 -156.43566 44 ft 0 kts 304°
2026-04-12 05:35 20.89449 -156.43565 45 ft 2 kts 304°
2026-04-12 05:35 20.89434 -156.43543 45 ft 4 kts 304°
2026-04-12 05:35 20.89419 -156.43519 44 ft 4 kts 304°
2026-04-12 05:35 20.89404 -156.43495 41 ft 4 kts 304°
2026-04-12 05:36 20.89389 -156.43472 42 ft 4 kts 308°
2026-04-12 05:36 20.89372 -156.43457 40 ft 4 kts
2026-04-12 05:36 20.89355 -156.43465 44 ft 4 kts 35°
2026-04-12 05:36 20.89344 -156.43473 44 ft 0 kts 35°
2026-04-12 05:39 20.89352 -156.43467 45 ft 4 kts 35°
2026-04-12 05:39 20.89388 -156.43441 42 ft 7 kts 34°
2026-04-12 05:39 20.89427 -156.43412 45 ft 7 kts 34°
2026-04-12 05:39 20.89475 -156.43376 42 ft 10 kts 35°
2026-04-12 05:40 20.89530 -156.43335 45 ft 10 kts 34°
2026-04-12 05:40 20.89585 -156.43294 44 ft 10 kts 35°
2026-04-12 05:40 20.89659 -156.43239 45 ft 14 kts 35°
2026-04-12 05:40 20.89741 -156.43177 45 ft 15 kts 34°
2026-04-12 05:41 20.89802 -156.43133 45 ft 12 kts 34°
2026-04-12 05:41 20.89882 -156.43073 43 ft 14 kts 34°
2026-04-12 05:41 20.89964 -156.43012 45 ft 14 kts 35°
2026-04-12 05:41 20.90046 -156.42951 44 ft 15 kts 35°
2026-04-12 05:42 20.90140 -156.42880 42 ft 17 kts 34°
2026-04-12 05:42 20.90236 -156.42809 44 ft 16 kts 35°
2026-04-12 05:42 20.90289 -156.42769 45 ft 0 kts 35°
2026-04-12 05:43 20.90311 -156.42753 43 ft 3 kts 35°
2026-04-12 05:43 20.90352 -156.42723 45 ft 11 kts 35°
2026-04-12 05:43 20.90414 -156.42676 43 ft 11 kts 34°
2026-04-12 05:43 20.90459 -156.42629 45 ft 0 kts 64°
2026-04-12 05:44 20.90462 -156.42621 45 ft 4 kts 64°
2026-04-12 05:44 20.90464 -156.42617 43 ft 0 kts 64°
2026-04-12 05:44 20.90465 -156.42616 43 ft 1 kts 64°
2026-04-12 05:44 20.90481 -156.42579 43 ft 7 kts 66°
2026-04-12 05:45 20.90487 -156.42522 46 ft 8 kts 106°
2026-04-12 05:45 20.90445 -156.42499 46 ft 7 kts 193°
2026-04-12 05:45 20.90423 -156.42511 45 ft 0 kts 215°
2026-04-12 05:46 20.90418 -156.42515 46 ft 11 kts 216°
2026-04-12 05:46 20.90129 -156.42729 44 ft 88 kts 216°
2026-04-12 05:46 20.89450 -156.43235 47 ft 147 kts 214°
2026-04-12 05:46 20.88500 -156.43937 258 ft 179 kts 214°
2026-04-12 05:47 20.87442 -156.44648 955 ft 180 kts 206°
2026-04-12 05:47 20.86270 -156.45070 1654 ft 177 kts 194°
2026-04-12 05:47 20.85027 -156.45395 2033 ft 191 kts 193°
2026-04-12 05:47 20.83670 -156.45735 2160 ft 209 kts 194°
2026-04-12 05:48 20.82183 -156.46118 2204 ft 233 kts 194°
2026-04-12 05:48 20.80524 -156.46561 2192 ft 255 kts 195°
2026-04-12 05:48 20.78802 -156.47031 2217 ft 262 kts 194°
2026-04-12 05:48 20.77019 -156.47504 2804 ft 264 kts 194°
2026-04-12 05:49 20.75242 -156.47974 3502 ft 263 kts 194°
2026-04-12 05:49 20.73461 -156.48445 4131 ft 265 kts 194°
2026-04-12 05:49 20.71653 -156.48889 4737 ft 267 kts 186°
2026-04-12 05:49 20.69809 -156.48738 5299 ft 270 kts 162°
2026-04-12 05:50 20.68177 -156.47744 5829 ft 274 kts 136°
2026-04-12 05:50 20.67099 -156.46062 6355 ft 279 kts 111°
2026-04-12 05:50 20.66810 -156.44042 6828 ft 284 kts 85°
2026-04-12 05:50 20.67315 -156.41991 7296 ft 289 kts 70°
2026-04-12 05:51 20.67995 -156.39961 7819 ft 292 kts 70°
2026-04-12 05:51 20.68684 -156.37910 8338 ft 295 kts 70°
2026-04-12 05:51 20.69376 -156.35833 8857 ft 299 kts 70°
2026-04-12 05:51 20.70073 -156.33730 9379 ft 302 kts 70°
2026-04-12 05:52 20.70774 -156.31604 9896 ft 306 kts 70°
2026-04-12 05:52 20.71480 -156.29453 10204 ft 318 kts 70°
2026-04-12 05:52 20.72232 -156.27163 10327 ft 336 kts 70°
2026-04-12 05:52 20.73027 -156.24752 10459 ft 354 kts 70°
2026-04-12 05:53 20.73859 -156.22218 10605 ft 368 kts 70°
2026-04-12 05:53 20.74707 -156.19625 10977 ft 373 kts 70°
2026-04-12 05:53 20.75565 -156.16989 11448 ft 376 kts 70°
2026-04-12 05:53 20.76430 -156.14337 11892 ft 380 kts 70°
2026-04-12 05:54 20.77303 -156.11661 12350 ft 383 kts 70°
2026-04-12 05:54 20.78187 -156.08963 12797 ft 386 kts 70°
2026-04-12 05:54 20.79066 -156.06285 13234 ft 390 kts 70°
2026-04-12 05:54 20.79966 -156.03543 13687 ft 393 kts 70°
2026-04-12 05:55 20.80871 -156.00778 14102 ft 396 kts 70°
2026-04-12 05:55 20.81781 -155.97991 14504 ft 398 kts 70°
2026-04-12 05:55 20.82698 -155.95184 14899 ft 401 kts 70°
2026-04-12 05:55 20.83621 -155.92356 15289 ft 404 kts 70°
2026-04-12 05:56 20.84547 -155.89510 15689 ft 407 kts 70°
2026-04-12 05:56 20.85480 -155.86643 16085 ft 410 kts 70°
2026-04-12 05:56 20.86418 -155.83758 16480 ft 412 kts 70°
2026-04-12 05:56 20.87346 -155.80896 16872 ft 415 kts 70°
2026-04-12 05:57 20.88300 -155.77965 17257 ft 418 kts 70°
2026-04-12 05:57 20.89256 -155.75026 17643 ft 421 kts 70°
2026-04-12 05:57 20.90218 -155.72061 18026 ft 423 kts 70°
2026-04-12 05:57 20.91186 -155.69076 18397 ft 426 kts 70°
2026-04-12 05:58 20.92160 -155.66071 18727 ft 429 kts 70°
2026-04-12 05:58 20.93139 -155.63050 19070 ft 431 kts 70°
2026-04-12 05:58 20.94123 -155.60012 19413 ft 433 kts 70°
2026-04-12 05:58 20.95098 -155.56999 19761 ft 435 kts 70°
2026-04-12 05:59 20.96093 -155.53932 20107 ft 438 kts 70°
2026-04-12 05:59 20.97093 -155.50848 20444 ft 440 kts 70°
2026-04-12 05:59 20.98095 -155.47749 20782 ft 442 kts 70°
2026-04-12 05:59 20.99098 -155.44633 21102 ft 444 kts 71°
2026-04-12 06:00 21.00102 -155.41510 21420 ft 446 kts 71°
2026-04-12 06:00 21.01115 -155.38363 21727 ft 448 kts 71°
2026-04-12 06:00 21.02131 -155.35203 22027 ft 450 kts 71°
2026-04-12 06:00 21.03136 -155.32070 22317 ft 452 kts 71°
2026-04-12 06:01 21.04159 -155.28882 22604 ft 454 kts 71°
2026-04-12 06:01 21.05188 -155.25680 22892 ft 456 kts 71°
2026-04-12 06:01 21.06221 -155.22465 23170 ft 458 kts 71°
2026-04-12 06:01 21.07260 -155.19237 23447 ft 460 kts 71°
2026-04-12 06:02 21.08303 -155.15996 23712 ft 461 kts 71°
2026-04-12 06:02 21.09351 -155.12741 23931 ft 463 kts 71°
2026-04-12 06:02 21.10386 -155.09515 24152 ft 465 kts 71°
2026-04-12 06:02 21.11434 -155.06236 24370 ft 467 kts 71°
2026-04-12 06:03 21.12488 -155.02935 24590 ft 469 kts 71°
2026-04-12 06:03 21.13545 -154.99620 24801 ft 471 kts 71°
2026-04-12 06:03 21.14606 -154.96291 25022 ft 473 kts 71°
2026-04-12 06:03 21.15670 -154.92949 25236 ft 475 kts 71°
2026-04-12 06:04 21.16739 -154.89593 25443 ft 477 kts 71°
2026-04-12 06:04 21.17812 -154.86222 25649 ft 479 kts 71°
2026-04-12 06:04 21.18889 -154.82836 25853 ft 481 kts 71°
2026-04-12 06:04 21.19956 -154.79482 26052 ft 483 kts 71°
2026-04-12 06:05 21.21056 -154.76022 26256 ft 485 kts 71°
2026-04-12 06:05 21.22133 -154.72640 26447 ft 487 kts 71°
2026-04-12 06:05 21.23225 -154.69205 26649 ft 489 kts 71°
2026-04-12 06:05 21.24324 -154.65740 26844 ft 491 kts 71°
2026-04-12 06:06 21.25420 -154.62276 27038 ft 493 kts 71°
2026-04-12 06:06 21.26522 -154.58790 27227 ft 495 kts 71°
2026-04-12 06:06 21.27629 -154.55291 27415 ft 496 kts 71°
2026-04-12 06:06 21.28741 -154.51779 27595 ft 498 kts 71°
2026-04-12 06:07 21.29856 -154.48254 27776 ft 500 kts 71°
2026-04-12 06:07 21.30960 -154.44763 27951 ft 502 kts 71°
2026-04-12 06:07 21.32082 -154.41212 28122 ft 504 kts 71°
2026-04-12 06:07 21.33206 -154.37648 28303 ft 505 kts 71°
2026-04-12 06:08 21.34331 -154.34069 28477 ft 507 kts 71°
2026-04-12 06:08 21.35458 -154.30472 28628 ft 510 kts 71°
2026-04-12 06:08 21.36588 -154.26861 28797 ft 512 kts 71°
2026-04-12 06:08 21.37721 -154.23240 28969 ft 513 kts 71°
2026-04-12 06:09 21.38862 -154.19603 29143 ft 515 kts 71°
2026-04-12 06:09 21.40008 -154.15957 29354 ft 516 kts 71°
2026-04-12 06:09 21.41155 -154.12309 29615 ft 516 kts 71°
2026-04-12 06:09 21.42284 -154.08707 29863 ft 516 kts 71°
2026-04-12 06:10 21.43425 -154.05054 30096 ft 516 kts 71°
2026-04-12 06:10 21.44564 -154.01400 30318 ft 516 kts 71°
2026-04-12 06:10 21.45703 -153.97752 30561 ft 515 kts 71°
2026-04-12 06:10 21.46838 -153.94111 30804 ft 514 kts 71°
2026-04-12 06:11 21.47969 -153.90477 31035 ft 513 kts 71°
2026-04-12 06:11 21.49096 -153.86848 31271 ft 512 kts 71°
2026-04-12 06:11 21.50222 -153.83226 31498 ft 511 kts 70°
2026-04-12 06:11 21.51343 -153.79618 31727 ft 510 kts 70°
2026-04-12 06:12 21.52450 -153.76056 31949 ft 509 kts 70°
2026-04-12 06:12 21.53570 -153.72451 32176 ft 509 kts 70°
2026-04-12 06:12 21.54688 -153.68846 32358 ft 509 kts 70°
2026-04-12 06:12 21.55807 -153.65240 32555 ft 509 kts 70°
2026-04-12 06:13 21.56922 -153.61635 32760 ft 508 kts 70°
2026-04-12 06:13 21.58035 -153.58033 32969 ft 508 kts 70°
2026-04-12 06:13 21.59132 -153.54480 33075 ft 507 kts 70°
2026-04-12 06:13 21.60238 -153.50887 33094 ft 506 kts 70°
2026-04-12 06:14 21.62442 -153.43716 33092 ft 505 kts 70°
2026-04-12 06:14 21.64656 -153.36535 33092 ft 507 kts 70°
2026-04-12 06:15 21.66872 -153.29346 33095 ft 507 kts 70°
2026-04-12 06:15 21.69084 -153.22147 33098 ft 507 kts 70°
2026-04-12 06:16 21.71342 -153.15021 33096 ft 506 kts 65°
2026-04-12 06:16 21.74560 -153.08329 33104 ft 504 kts 59°
2026-04-12 06:17 21.77921 -153.01703 33101 ft 505 kts 59°
2026-04-12 06:17 21.81285 -152.95070 33100 ft 505 kts 59°
2026-04-12 06:18 21.84608 -152.88463 33106 ft 505 kts 59°
2026-04-12 06:18 21.87948 -152.81803 33109 ft 505 kts 59°
2026-04-12 06:19 21.91296 -152.75146 33109 ft 505 kts 59°
2026-04-12 06:19 21.94643 -152.68494 33125 ft 506 kts 59°
2026-04-12 06:20 21.97958 -152.61865 33124 ft 506 kts 59°
2026-04-12 06:20 22.01295 -152.55182 33122 ft 506 kts 59°
2026-04-12 06:21 22.04635 -152.48500 33127 ft 506 kts 60°
2026-04-12 06:21 22.07971 -152.41820 33129 ft 506 kts 60°
2026-04-12 06:22 22.11299 -152.35145 33131 ft 505 kts 60°
2026-04-12 06:22 22.14595 -152.28525 33128 ft 505 kts 60°
2026-04-12 06:23 22.17919 -152.21857 33123 ft 505 kts 60°
2026-04-12 06:23 22.21240 -152.15182 33126 ft 505 kts 60°
2026-04-12 06:24 22.24550 -152.08501 33127 ft 505 kts 60°
2026-04-12 06:24 22.27835 -152.01859 33127 ft 505 kts 60°
2026-04-12 06:25 22.31147 -151.95172 33126 ft 505 kts 60°
2026-04-12 06:25 22.34454 -151.88477 33132 ft 505 kts 60°
2026-04-12 06:26 22.37742 -151.81774 33146 ft 505 kts 60°
2026-04-12 06:26 22.41015 -151.75074 33136 ft 505 kts 60°
2026-04-12 06:27 22.44279 -151.68415 33134 ft 505 kts 60°
2026-04-12 06:27 22.47559 -151.61704 33131 ft 505 kts 60°
2026-04-12 06:28 22.50831 -151.54981 33131 ft 505 kts 60°
2026-04-12 06:28 22.54106 -151.48253 33133 ft 506 kts 60°
2026-04-12 06:29 22.57367 -151.41567 33137 ft 506 kts 60°
2026-04-12 06:29 22.60637 -151.34832 33139 ft 506 kts 60°
2026-04-12 06:30 22.63911 -151.28086 33144 ft 506 kts 61°
2026-04-12 06:30 22.67184 -151.21339 33147 ft 506 kts 61°
2026-04-12 06:31 22.70430 -151.14636 33149 ft 506 kts 61°
2026-04-12 06:31 22.73693 -151.07890 33150 ft 505 kts 61°
2026-04-12 06:32 22.76948 -151.01145 33151 ft 504 kts 61°
2026-04-12 06:32 22.80187 -150.94408 33149 ft 504 kts 61°
2026-04-12 06:33 22.83407 -150.87729 33146 ft 504 kts 61°
2026-04-12 06:33 22.86646 -150.80986 33150 ft 504 kts 61°
2026-04-12 06:34 22.89884 -150.74243 33150 ft 504 kts 61°
2026-04-12 06:34 22.93120 -150.67514 33160 ft 502 kts 62°
2026-04-12 06:35 22.97923 -150.57491 33161 ft 501 kts 61°
2026-04-12 06:36 23.01122 -150.50777 33131 ft 502 kts 61°
2026-04-12 06:36 23.04337 -150.44038 33135 ft 503 kts 62°
2026-04-12 06:37 23.07554 -150.37306 33159 ft 502 kts 62°
2026-04-12 06:37 23.10751 -150.30579 33161 ft 501 kts 62°
2026-04-12 06:38 23.13915 -150.23907 33158 ft 500 kts 62°
2026-04-12 06:38 23.17095 -150.17201 33162 ft 499 kts 62°
2026-04-12 06:39 23.20278 -150.10507 33159 ft 498 kts 62°
2026-04-12 06:39 23.23450 -150.03819 33160 ft 497 kts 62°
2026-04-12 06:40 23.26604 -149.97125 33157 ft 497 kts 62°
2026-04-12 06:40 23.29736 -149.90490 33156 ft 497 kts 62°
2026-04-12 06:41 23.32883 -149.83804 33162 ft 496 kts 62°
2026-04-12 06:41 23.36028 -149.77130 33160 ft 496 kts 62°
2026-04-12 06:42 23.39170 -149.70447 33157 ft 496 kts 62°
2026-04-12 06:42 23.42291 -149.63802 33155 ft 496 kts 62°
2026-04-12 06:43 23.45426 -149.57105 33156 ft 496 kts 62°
2026-04-12 06:43 23.48558 -149.50406 33156 ft 496 kts 62°
2026-04-12 06:44 23.51699 -149.43710 33157 ft 496 kts 62°
2026-04-12 06:44 23.54812 -149.37054 33158 ft 496 kts 62°
2026-04-12 06:45 23.57937 -149.30344 33165 ft 496 kts 62°
2026-04-12 06:45 23.61055 -149.23633 33162 ft 497 kts 62°
2026-04-12 06:46 23.64180 -149.16912 33162 ft 497 kts 62°
2026-04-12 06:46 23.67302 -149.10186 33163 ft 497 kts 62°
2026-04-12 06:47 23.70400 -149.03499 33168 ft 497 kts 62°
2026-04-12 06:47 23.73516 -148.96762 33161 ft 497 kts 62°
2026-04-12 06:48 23.76638 -148.90019 33171 ft 498 kts 62°
2026-04-12 06:48 23.79750 -148.83272 33168 ft 498 kts 62°
2026-04-12 06:49 23.82866 -148.76513 33167 ft 498 kts 62°
2026-04-12 06:49 23.85958 -148.69794 33167 ft 498 kts 62°
2026-04-12 06:50 23.89074 -148.63029 33168 ft 498 kts 62°
2026-04-12 06:50 23.92184 -148.56258 33170 ft 498 kts 63°
2026-04-12 06:51 23.95290 -148.49475 33159 ft 500 kts 62°
2026-04-12 06:51 23.98380 -148.42719 33162 ft 500 kts 62°
2026-04-12 06:52 24.01497 -148.35910 33169 ft 501 kts 62°
2026-04-12 06:52 24.04603 -148.29101 33172 ft 501 kts 62°
2026-04-12 06:53 24.07709 -148.22280 33172 ft 501 kts 63°
2026-04-12 06:53 24.10789 -148.15498 33184 ft 501 kts 62°
2026-04-12 06:54 24.13902 -148.08665 33173 ft 502 kts 62°
2026-04-12 06:54 24.17013 -148.01817 33170 ft 503 kts 62°
2026-04-12 06:55 24.20118 -147.94954 33169 ft 503 kts 63°
2026-04-12 06:55 24.23198 -147.88128 33168 ft 503 kts 62°
2026-04-12 06:56 24.26299 -147.81254 33179 ft 503 kts 62°
2026-04-12 06:56 24.29399 -147.74387 33175 ft 503 kts 62°
2026-04-12 06:57 24.32511 -147.67510 33172 ft 504 kts 62°
2026-04-12 06:57 24.35612 -147.60616 33171 ft 504 kts 62°
2026-04-12 06:58 24.38701 -147.53724 33177 ft 504 kts 62°
2026-04-12 06:58 24.41770 -147.46871 33176 ft 504 kts 62°
2026-04-12 06:59 24.44859 -147.39971 33183 ft 504 kts 62°
2026-04-12 06:59 24.47941 -147.33069 33174 ft 503 kts 62°
2026-04-12 07:00 24.52563 -147.22715 33182 ft 503 kts 62°
2026-04-12 07:00 24.55620 -147.15855 33185 ft 503 kts 62°
2026-04-12 07:01 24.58691 -147.08949 33181 ft 503 kts 62°
2026-04-12 07:01 24.61750 -147.02049 33182 ft 503 kts 62°
2026-04-12 07:02 24.64813 -146.95136 33186 ft 503 kts 62°
2026-04-12 07:02 24.67882 -146.88208 33178 ft 504 kts 62°
2026-04-12 07:03 24.70928 -146.81311 33177 ft 505 kts 62°
2026-04-12 07:03 24.73994 -146.74368 33177 ft 505 kts 62°
2026-04-12 07:04 24.77059 -146.67419 33184 ft 505 kts 62°
2026-04-12 07:04 24.80118 -146.60465 33199 ft 505 kts 62°
2026-04-12 07:05 24.83156 -146.53549 33184 ft 506 kts 62°
2026-04-12 07:05 24.86212 -146.46577 33182 ft 506 kts 62°
2026-04-12 07:06 24.89279 -146.39590 33184 ft 507 kts 62°
2026-04-12 07:06 24.92334 -146.32590 33188 ft 507 kts 62°
2026-04-12 07:07 24.95371 -146.25633 33191 ft 507 kts 62°
2026-04-12 07:07 24.98424 -146.18622 33199 ft 508 kts 62°
2026-04-12 07:08 25.01483 -146.11605 33196 ft 508 kts 62°
2026-04-12 07:08 25.04531 -146.04583 33195 ft 508 kts 62°
2026-04-12 07:09 25.07559 -145.97594 33196 ft 508 kts 62°
2026-04-12 07:09 25.10614 -145.90559 33199 ft 508 kts 62°
2026-04-12 07:10 25.13663 -145.83520 33211 ft 508 kts 61°
2026-04-12 07:10 25.16709 -145.76474 33205 ft 509 kts 61°
2026-04-12 07:11 25.19722 -145.69465 33204 ft 509 kts 61°
2026-04-12 07:11 25.22757 -145.62408 33206 ft 509 kts 61°
2026-04-12 07:12 25.25782 -145.55354 33202 ft 508 kts 61°
2026-04-12 07:12 25.28803 -145.48291 33211 ft 508 kts 61°
2026-04-12 07:13 25.31813 -145.41280 33195 ft 508 kts 61°
2026-04-12 07:13 25.34835 -145.34219 33198 ft 508 kts 61°
2026-04-12 07:14 25.37852 -145.27155 33204 ft 508 kts 61°
2026-04-12 07:14 25.40861 -145.20085 33188 ft 508 kts 61°
2026-04-12 07:15 25.43863 -145.13009 33197 ft 508 kts 61°
2026-04-12 07:15 25.46871 -145.05942 33211 ft 508 kts 61°
2026-04-12 07:16 25.49853 -144.98902 33211 ft 508 kts 61°
2026-04-12 07:16 25.52844 -144.91831 33207 ft 507 kts 61°
2026-04-12 07:17 25.55832 -144.84753 33210 ft 507 kts 61°
2026-04-12 07:17 25.58796 -144.77721 33205 ft 507 kts 61°
2026-04-12 07:18 25.61773 -144.70637 33221 ft 507 kts 61°
2026-04-12 07:18 25.64735 -144.63571 33214 ft 505 kts 61°
2026-04-12 07:19 25.67703 -144.56515 33219 ft 505 kts 61°
2026-04-12 07:19 25.70644 -144.49510 33199 ft 504 kts 61°
2026-04-12 07:20 25.73593 -144.42456 33205 ft 504 kts 61°
2026-04-12 07:20 25.76542 -144.35402 33218 ft 504 kts 61°
2026-04-12 07:21 25.79474 -144.28355 33222 ft 502 kts 61°
2026-04-12 07:21 25.82377 -144.21371 33213 ft 501 kts 61°
2026-04-12 07:22 25.85293 -144.14348 33212 ft 501 kts 61°
2026-04-12 07:22 25.88209 -144.07340 33209 ft 500 kts 61°
2026-04-12 07:23 25.91124 -144.00322 33226 ft 500 kts 61°
2026-04-12 07:23 25.94026 -143.93303 33225 ft 499 kts 61°
2026-04-12 07:24 25.96905 -143.86286 33217 ft 499 kts 61°
2026-04-12 07:24 25.99765 -143.79329 33214 ft 498 kts 61°
2026-04-12 07:25 26.02647 -143.72344 33210 ft 497 kts 61°
2026-04-12 07:25 26.05524 -143.65354 33208 ft 497 kts 61°
2026-04-12 07:26 26.08389 -143.58367 33213 ft 496 kts 61°
2026-04-12 07:26 26.11241 -143.51377 33210 ft 496 kts 61°
2026-04-12 07:27 26.14077 -143.44436 33207 ft 496 kts 61°
2026-04-12 07:27 26.16936 -143.37449 33208 ft 496 kts 61°
2026-04-12 07:28 26.19784 -143.30460 33225 ft 496 kts 61°
2026-04-12 07:28 26.22630 -143.23459 33224 ft 496 kts 61°
2026-04-12 07:29 26.25455 -143.16516 33226 ft 495 kts 61°
2026-04-12 07:29 26.28288 -143.09534 33223 ft 494 kts 62°
2026-04-12 07:30 26.31104 -143.02548 33218 ft 494 kts 62°
2026-04-12 07:30 26.33919 -142.95566 33229 ft 493 kts 61°
2026-04-12 07:31 26.36740 -142.88595 33224 ft 493 kts 61°
2026-04-12 07:31 26.39536 -142.81677 33220 ft 492 kts 62°
2026-04-12 07:32 26.42334 -142.74708 33216 ft 492 kts 62°
2026-04-12 07:32 26.45121 -142.67748 33218 ft 492 kts 62°
2026-04-12 07:33 26.47904 -142.60781 33232 ft 491 kts 62°
2026-04-12 07:33 26.50666 -142.53864 33224 ft 491 kts 62°
2026-04-12 07:34 26.53448 -142.46907 33225 ft 490 kts 62°
2026-04-12 07:34 26.56223 -142.39951 33223 ft 490 kts 62°
2026-04-12 07:35 26.58997 -142.32997 33223 ft 490 kts 62°
2026-04-12 07:35 26.61738 -142.26094 33235 ft 490 kts 62°
2026-04-12 07:36 26.64483 -142.19133 33227 ft 489 kts 62°
2026-04-12 07:36 26.67234 -142.12185 33228 ft 489 kts 62°
2026-04-12 07:37 26.69983 -142.05237 33226 ft 489 kts 62°
2026-04-12 07:37 26.72722 -141.98283 33218 ft 488 kts 62°
2026-04-12 07:38 26.75442 -141.91378 33238 ft 488 kts 62°
2026-04-12 07:38 26.78178 -141.84427 33223 ft 488 kts 62°
2026-04-12 07:39 26.80902 -141.77487 33225 ft 487 kts 62°
2026-04-12 07:39 26.83622 -141.70541 33222 ft 487 kts 62°
2026-04-12 07:40 26.86317 -141.63644 33224 ft 486 kts 62°
2026-04-12 07:40 26.89025 -141.56700 33229 ft 486 kts 62°
2026-04-12 07:41 26.91733 -141.49763 33225 ft 486 kts 62°
2026-04-12 07:41 26.94428 -141.42827 33220 ft 485 kts 62°
2026-04-12 07:42 26.97119 -141.35903 33216 ft 485 kts 62°
2026-04-12 07:43 27.02467 -141.22084 33224 ft 484 kts 62°
2026-04-12 07:43 27.05148 -141.15154 33217 ft 484 kts 62°
2026-04-12 07:44 27.07828 -141.08225 33216 ft 484 kts 62°
2026-04-12 07:44 27.10472 -141.01332 33206 ft 484 kts 62°
2026-04-12 07:45 27.13131 -140.94401 33213 ft 484 kts 62°
2026-04-12 07:45 27.15799 -140.87462 33219 ft 484 kts 62°
2026-04-12 07:46 27.18459 -140.80515 33214 ft 484 kts 62°
2026-04-12 07:46 27.21116 -140.73561 33212 ft 484 kts 62°
2026-04-12 07:47 27.23755 -140.66648 33212 ft 485 kts 62°
2026-04-12 07:47 27.26410 -140.59684 33221 ft 485 kts 62°
2026-04-12 07:48 27.29057 -140.52718 33221 ft 485 kts 62°
2026-04-12 07:48 27.31700 -140.45734 33221 ft 485 kts 63°
2026-04-12 07:49 27.34330 -140.38794 33228 ft 486 kts 63°
2026-04-12 07:49 27.36979 -140.31804 33226 ft 486 kts 63°
2026-04-12 07:50 27.39630 -140.24815 33220 ft 485 kts 63°
2026-04-12 07:50 27.42263 -140.17821 33218 ft 485 kts 63°
2026-04-12 07:51 27.44878 -140.10878 33216 ft 485 kts 63°
2026-04-12 07:51 27.47499 -140.03891 33222 ft 485 kts 63°
2026-04-12 07:52 27.50117 -139.96888 33220 ft 485 kts 63°
2026-04-12 07:52 27.52741 -139.89881 33232 ft 485 kts 63°
2026-04-12 07:53 27.54919 -139.84049 33224 ft 486 kts 63°
2026-04-12 07:53 27.57953 -139.75894 33223 ft 486 kts 63°
2026-04-12 07:54 27.60566 -139.68875 33227 ft 485 kts 63°
2026-04-12 07:54 27.62739 -139.63047 33238 ft 485 kts 63°
2026-04-12 07:55 27.65347 -139.56021 33230 ft 486 kts 63°
2026-04-12 07:55 27.67949 -139.48986 33229 ft 486 kts 63°
2026-04-12 07:56 27.70974 -139.40808 33224 ft 486 kts 63°
2026-04-12 07:56 27.73133 -139.34950 33224 ft 486 kts 63°
2026-04-12 07:57 27.75727 -139.27899 33237 ft 486 kts 63°
2026-04-12 07:57 27.78736 -139.19698 33231 ft 486 kts 63°
2026-04-12 07:58 27.80901 -139.13788 33227 ft 486 kts 63°
2026-04-12 07:58 27.83473 -139.06775 33223 ft 486 kts 63°
2026-04-12 07:59 27.86060 -138.99715 33241 ft 486 kts 63°
2026-04-12 07:59 27.88636 -138.92647 33234 ft 486 kts 63°
2026-04-12 08:00 27.91205 -138.85583 33229 ft 486 kts 63°
2026-04-12 08:00 27.93776 -138.78501 33225 ft 486 kts 63°
2026-04-12 08:01 27.96323 -138.71481 33225 ft 486 kts 63°
2026-04-12 08:01 27.98882 -138.64401 33237 ft 486 kts 63°
2026-04-12 08:02 28.01443 -138.57319 33225 ft 486 kts 63°
2026-04-12 08:02 28.03995 -138.50224 33216 ft 487 kts 63°
2026-04-12 08:03 28.06527 -138.43169 33219 ft 487 kts 63°
2026-04-12 08:03 28.09074 -138.36066 33213 ft 488 kts 63°
2026-04-12 08:04 28.11631 -138.28943 33220 ft 488 kts 63°
2026-04-12 08:04 28.14183 -138.21804 33222 ft 489 kts 63°
2026-04-12 08:05 28.16735 -138.14653 33220 ft 490 kts 63°
2026-04-12 08:05 28.19269 -138.07538 33217 ft 490 kts 63°
2026-04-12 08:06 28.21822 -138.00368 33211 ft 490 kts 63°
2026-04-12 08:06 28.24371 -137.93197 33213 ft 490 kts 63°
2026-04-12 08:07 28.26908 -137.86021 33213 ft 490 kts 64°
2026-04-12 08:07 28.29439 -137.78840 33229 ft 490 kts 64°
2026-04-12 08:08 28.31958 -137.71715 33222 ft 490 kts 64°
2026-04-12 08:08 28.34490 -137.64529 33222 ft 490 kts 64°
2026-04-12 08:09 28.37021 -137.57345 33216 ft 490 kts 64°
2026-04-12 08:09 28.39525 -137.50204 33210 ft 490 kts 64°
2026-04-12 08:10 28.42033 -137.43014 33219 ft 490 kts 64°
2026-04-12 08:10 28.44541 -137.35813 33207 ft 490 kts 64°
2026-04-12 08:11 28.47051 -137.28609 33204 ft 490 kts 64°
2026-04-12 08:11 28.49563 -137.21398 33205 ft 491 kts 64°
2026-04-12 08:12 28.52060 -137.14230 33205 ft 491 kts 64°
2026-04-12 08:12 28.54565 -137.07004 33204 ft 491 kts 64°
2026-04-12 08:13 28.57061 -136.99772 33199 ft 491 kts 64°
2026-04-12 08:13 28.59549 -136.92534 33200 ft 491 kts 65°
2026-04-12 08:14 28.62029 -136.85341 33206 ft 492 kts 64°
2026-04-12 08:14 28.64527 -136.78104 33201 ft 492 kts 65°
2026-04-12 08:15 28.67011 -136.70845 33202 ft 492 kts 65°
2026-04-12 08:15 28.69487 -136.63579 33202 ft 492 kts 65°
2026-04-12 08:16 28.71961 -136.56368 33208 ft 492 kts 65°
2026-04-12 08:16 28.74449 -136.49106 33204 ft 492 kts 65°
2026-04-12 08:17 28.76923 -136.41842 33198 ft 492 kts 65°
2026-04-12 08:17 28.79389 -136.34560 33197 ft 492 kts 65°
2026-04-12 08:18 28.81849 -136.27273 33213 ft 493 kts 65°
2026-04-12 08:18 28.84297 -136.20028 33202 ft 493 kts 65°
2026-04-12 08:19 28.86760 -136.12728 33208 ft 493 kts 65°
2026-04-12 08:19 28.89228 -136.05427 33209 ft 493 kts 65°
2026-04-12 08:20 28.91686 -135.98117 33208 ft 493 kts 65°
2026-04-12 08:20 28.94132 -135.90796 33201 ft 494 kts 65°
2026-04-12 08:21 28.96579 -135.83478 33201 ft 494 kts 65°
2026-04-12 08:21 28.99014 -135.76196 33215 ft 494 kts 65°
2026-04-12 08:22 29.01468 -135.68859 33205 ft 494 kts 65°
2026-04-12 08:22 29.03919 -135.61517 33199 ft 495 kts 65°
2026-04-12 08:23 29.06363 -135.54166 33189 ft 495 kts 66°
2026-04-12 08:23 29.08776 -135.46843 33201 ft 496 kts 66°
2026-04-12 08:24 29.11203 -135.39463 33194 ft 496 kts 66°
2026-04-12 08:24 29.13640 -135.32092 33183 ft 496 kts 66°
2026-04-12 08:25 29.16078 -135.24697 33182 ft 497 kts 66°
2026-04-12 08:25 29.18510 -135.17289 33192 ft 497 kts 66°
2026-04-12 08:26 29.20915 -135.09920 33186 ft 498 kts 66°
2026-04-12 08:26 29.23340 -135.02502 33185 ft 498 kts 66°
2026-04-12 08:27 29.25771 -134.95071 33185 ft 498 kts 66°
2026-04-12 08:27 29.28198 -134.87630 33183 ft 499 kts 66°
2026-04-12 08:28 29.30601 -134.80229 33181 ft 499 kts 66°
2026-04-12 08:28 29.33018 -134.72776 33180 ft 499 kts 66°
2026-04-12 08:29 29.35429 -134.65319 33178 ft 499 kts 66°
2026-04-12 08:29 29.37835 -134.57858 33183 ft 499 kts 66°
2026-04-12 08:30 29.40238 -134.50388 33175 ft 499 kts 66°
2026-04-12 08:30 29.42624 -134.42959 33173 ft 500 kts 66°
2026-04-12 08:31 29.45023 -134.35479 33179 ft 500 kts 66°
2026-04-12 08:31 29.47419 -134.27982 33172 ft 500 kts 66°
2026-04-12 08:32 29.49815 -134.20480 33186 ft 501 kts 66°
2026-04-12 08:32 29.52194 -134.13021 33176 ft 501 kts 66°
2026-04-12 08:33 29.54580 -134.05510 33171 ft 501 kts 67°
2026-04-12 08:33 29.56968 -133.97984 33173 ft 502 kts 67°
2026-04-12 08:34 29.59348 -133.90444 33174 ft 502 kts 67°
2026-04-12 08:34 29.61714 -133.82948 33181 ft 502 kts 67°
2026-04-12 08:35 29.64096 -133.75394 33172 ft 503 kts 67°
2026-04-12 08:35 29.66470 -133.67827 33173 ft 503 kts 67°
2026-04-12 08:36 29.68841 -133.60253 33186 ft 503 kts 67°
2026-04-12 08:36 29.71198 -133.52724 33181 ft 504 kts 67°
2026-04-12 08:37 29.73561 -133.45143 33174 ft 504 kts 67°
2026-04-12 08:37 29.75922 -133.37547 33145 ft 504 kts 67°
2026-04-12 08:38 29.78287 -133.29941 33161 ft 505 kts 67°
2026-04-12 08:38 29.80633 -133.22371 33177 ft 506 kts 67°
2026-04-12 08:39 29.82999 -133.14740 33163 ft 506 kts 67°
2026-04-12 08:39 29.85359 -133.07093 33176 ft 507 kts 67°
2026-04-12 08:40 29.87717 -132.99446 33167 ft 507 kts 67°
2026-04-12 08:40 29.90080 -132.91771 33164 ft 508 kts 68°
2026-04-12 08:41 29.92413 -132.84153 33166 ft 508 kts 68°
2026-04-12 08:41 29.94754 -132.76465 33167 ft 508 kts 68°
2026-04-12 08:42 29.97086 -132.68771 33160 ft 508 kts 68°
2026-04-12 08:42 29.99429 -132.61080 33170 ft 508 kts 68°
2026-04-12 08:43 30.01773 -132.53384 33168 ft 509 kts 68°
2026-04-12 08:43 30.04092 -132.45737 33163 ft 509 kts 68°
2026-04-12 08:44 30.06417 -132.38020 33169 ft 509 kts 68°
2026-04-12 08:44 30.08738 -132.30296 33161 ft 509 kts 68°
2026-04-12 08:45 30.11058 -132.22567 33158 ft 509 kts 68°
2026-04-12 08:45 30.13365 -132.14888 33167 ft 509 kts 68°
2026-04-12 08:46 30.15680 -132.07150 33158 ft 510 kts 68°
2026-04-12 08:47 30.19135 -131.95544 33168 ft 509 kts 68°
2026-04-12 08:47 30.21439 -131.87792 33159 ft 509 kts 68°
2026-04-12 08:48 30.23727 -131.80107 33153 ft 509 kts 68°
2026-04-12 08:48 30.26022 -131.72351 33159 ft 510 kts 68°
2026-04-12 08:49 30.28298 -131.64577 33152 ft 510 kts 68°
2026-04-12 08:49 30.30586 -131.56799 33151 ft 511 kts 68°
2026-04-12 08:50 30.32880 -131.49016 33155 ft 511 kts 68°
2026-04-12 08:50 30.35144 -131.41286 33152 ft 511 kts 68°
2026-04-12 08:51 30.37414 -131.33492 33163 ft 511 kts 68°
2026-04-12 08:51 30.39684 -131.25696 33149 ft 511 kts 68°
2026-04-12 08:52 30.41955 -131.17896 33146 ft 511 kts 68°
2026-04-12 08:52 30.44206 -131.10144 33121 ft 511 kts 68°
2026-04-12 08:53 30.46465 -131.02325 33111 ft 512 kts 68°
2026-04-12 08:53 30.48714 -130.94493 33112 ft 513 kts 68°
2026-04-12 08:54 30.50965 -130.86641 33136 ft 513 kts 68°
2026-04-12 08:54 30.53205 -130.78837 33134 ft 513 kts 68°
2026-04-12 08:55 30.55459 -130.70974 33133 ft 514 kts 68°
2026-04-12 08:55 30.57710 -130.63102 33136 ft 514 kts 68°
2026-04-12 08:56 30.59954 -130.55223 33127 ft 514 kts 68°
2026-04-12 08:56 30.62193 -130.47342 33149 ft 514 kts 68°
2026-04-12 08:57 30.64414 -130.39522 33140 ft 514 kts 68°
2026-04-12 08:57 30.66641 -130.31630 33131 ft 514 kts 69°
2026-04-12 08:58 30.68857 -130.23727 33150 ft 515 kts 69°
2026-04-12 08:58 30.71075 -130.15819 33134 ft 515 kts 69°
2026-04-12 08:59 30.73284 -130.07962 33135 ft 515 kts 69°
2026-04-12 08:59 30.75499 -130.00051 33140 ft 515 kts 69°
2026-04-12 09:00 30.77707 -129.92127 33135 ft 515 kts 69°
2026-04-12 09:00 30.79910 -129.84200 33129 ft 516 kts 69°
2026-04-12 09:01 30.82109 -129.76256 33132 ft 516 kts 69°
2026-04-12 09:01 30.84290 -129.68355 33121 ft 516 kts 69°
2026-04-12 09:02 30.86492 -129.60394 33122 ft 517 kts 69°
2026-04-12 09:02 30.88687 -129.52421 33128 ft 518 kts 69°
2026-04-12 09:03 30.90877 -129.44431 33118 ft 518 kts 69°
2026-04-12 09:03 30.93062 -129.36437 33115 ft 519 kts 69°
2026-04-12 09:04 30.95238 -129.28479 33117 ft 519 kts 69°
2026-04-12 09:04 30.97421 -129.20451 33113 ft 520 kts 69°
2026-04-12 09:05 30.99600 -129.12413 33113 ft 520 kts 69°
2026-04-12 09:05 31.01779 -129.04363 33121 ft 521 kts 69°
2026-04-12 09:06 31.03950 -128.96358 33113 ft 521 kts 69°
2026-04-12 09:06 31.06118 -128.88282 33120 ft 522 kts 69°
2026-04-12 09:07 31.08282 -128.80204 33112 ft 523 kts 69°
2026-04-12 09:07 31.10447 -128.72104 33089 ft 523 kts 69°
2026-04-12 09:08 31.12595 -128.64055 33123 ft 523 kts 69°
2026-04-12 09:08 31.14762 -128.55951 33120 ft 523 kts 69°
2026-04-12 09:09 31.16919 -128.47838 33116 ft 523 kts 69°
2026-04-12 09:09 31.19063 -128.39715 33112 ft 523 kts 69°
2026-04-12 09:10 31.21208 -128.31600 33112 ft 523 kts 69°
2026-04-12 09:10 31.23335 -128.23525 33110 ft 523 kts 70°
2026-04-12 09:11 31.25465 -128.15387 33121 ft 524 kts 69°
2026-04-12 09:11 31.27596 -128.07240 33109 ft 524 kts 69°
2026-04-12 09:12 31.29729 -127.99081 33104 ft 525 kts 69°
2026-04-12 09:12 31.31840 -127.90976 33105 ft 525 kts 70°
2026-04-12 09:13 31.33967 -127.82787 33099 ft 526 kts 70°
2026-04-12 09:13 31.36088 -127.74605 33100 ft 526 kts 70°
2026-04-12 09:14 31.38202 -127.66402 33108 ft 527 kts 70°
2026-04-12 09:14 31.40299 -127.58239 33102 ft 527 kts 70°
2026-04-12 09:15 31.42410 -127.50012 33097 ft 528 kts 70°
2026-04-12 09:15 31.44514 -127.41780 33109 ft 528 kts 70°
2026-04-12 09:16 31.46616 -127.33525 33099 ft 529 kts 70°
2026-04-12 09:16 31.48709 -127.25260 33098 ft 529 kts 70°
2026-04-12 09:17 31.50794 -127.17054 33102 ft 530 kts 70°
2026-04-12 09:17 31.52892 -127.08772 33096 ft 530 kts 70°
2026-04-12 09:18 31.54982 -127.00478 33090 ft 531 kts 70°
2026-04-12 09:18 31.57060 -126.92171 33108 ft 531 kts 70°
2026-04-12 09:19 31.59129 -126.83910 33094 ft 532 kts 70°
2026-04-12 09:19 31.61213 -126.75585 33088 ft 532 kts 70°
2026-04-12 09:20 31.64317 -126.63080 33083 ft 533 kts 70°
2026-04-12 09:21 31.67409 -126.50596 33082 ft 534 kts 70°
2026-04-12 09:21 31.69483 -126.42224 33087 ft 534 kts 70°
2026-04-12 09:22 31.71546 -126.33837 33082 ft 535 kts 71°
2026-04-12 09:22 31.73592 -126.25436 33085 ft 535 kts 71°
2026-04-12 09:23 31.75633 -126.17086 33091 ft 536 kts 71°
2026-04-12 09:23 31.77695 -126.08673 33060 ft 536 kts 71°
2026-04-12 09:24 31.79733 -126.00261 33073 ft 536 kts 71°
2026-04-12 09:24 31.81769 -125.91827 33083 ft 535 kts 71°
2026-04-12 09:25 31.83785 -125.83467 33083 ft 535 kts 71°
2026-04-12 09:25 31.85811 -125.75041 33099 ft 535 kts 71°
2026-04-12 09:26 31.87832 -125.66609 33077 ft 536 kts 71°
2026-04-12 09:26 31.89850 -125.58170 33075 ft 536 kts 71°
2026-04-12 09:27 31.91847 -125.49780 33095 ft 536 kts 71°
2026-04-12 09:27 31.93856 -125.41325 33078 ft 536 kts 71°
2026-04-12 09:28 31.95860 -125.32870 33073 ft 537 kts 71°
2026-04-12 09:28 31.97863 -125.24398 33084 ft 537 kts 71°
2026-04-12 09:29 31.99846 -125.15973 33075 ft 537 kts 71°
2026-04-12 09:29 32.01828 -125.07479 33069 ft 538 kts 71°
2026-04-12 09:30 32.03808 -124.98990 33082 ft 538 kts 71°
2026-04-12 09:30 32.05797 -124.90489 33073 ft 538 kts 71°
2026-04-12 09:31 32.07772 -124.81975 33064 ft 538 kts 71°
2026-04-12 09:31 32.09731 -124.73511 33065 ft 539 kts 71°
2026-04-12 09:32 32.11701 -124.64985 33074 ft 539 kts 72°
2026-04-12 09:32 32.13650 -124.56446 33064 ft 539 kts 72°
2026-04-12 09:33 32.15600 -124.47914 33060 ft 539 kts 72°
2026-04-12 09:33 32.17546 -124.39427 33069 ft 539 kts 72°
2026-04-12 09:34 32.19496 -124.30874 33062 ft 540 kts 72°
2026-04-12 09:34 32.21435 -124.22309 33060 ft 540 kts 72°
2026-04-12 09:35 32.23367 -124.13750 33068 ft 540 kts 72°
2026-04-12 09:35 32.25270 -124.05167 33060 ft 540 kts 73°
2026-04-12 09:36 32.27056 -123.96599 33055 ft 541 kts 74°
2026-04-12 09:36 32.28812 -123.87956 33054 ft 541 kts 74°
2026-04-12 09:37 32.30582 -123.79313 33060 ft 541 kts 73°
2026-04-12 09:37 32.32370 -123.70673 33053 ft 541 kts 73°
2026-04-12 09:38 32.34156 -123.62041 33056 ft 541 kts 74°
2026-04-12 09:38 32.35920 -123.53438 33056 ft 541 kts 74°
2026-04-12 09:39 32.37680 -123.44793 33025 ft 541 kts 74°
2026-04-12 09:39 32.39430 -123.36141 33046 ft 540 kts 74°
2026-04-12 09:40 32.41177 -123.27494 33050 ft 540 kts 74°
2026-04-12 09:40 32.42906 -123.18904 33049 ft 540 kts 74°
2026-04-12 09:41 32.44650 -123.10260 33055 ft 540 kts 74°
2026-04-12 09:41 32.46381 -123.01613 33048 ft 540 kts 74°
2026-04-12 09:42 32.48199 -122.93004 33047 ft 539 kts 72°
2026-04-12 09:42 32.50231 -122.84461 33053 ft 539 kts 71°
2026-04-12 09:43 32.54269 -122.67415 33046 ft 539 kts 72°
2026-04-12 09:44 32.56215 -122.58824 33062 ft 540 kts 72°
2026-04-12 09:44 32.58152 -122.50218 33051 ft 540 kts 72°
2026-04-12 09:45 32.60081 -122.41690 33047 ft 539 kts 72°
2026-04-12 09:45 32.62036 -122.33101 33049 ft 539 kts 72°
2026-04-12 09:46 32.63989 -122.24511 33044 ft 539 kts 72°
2026-04-12 09:46 32.65925 -122.15916 33037 ft 539 kts 72°